Flag for Germany Weather past 2 weeks in Kaufbeuren, Bavaria, Germany

Now
61 °F

Cool.


Feels Like: 61 °F
Forecast: 53 / 78 °F
Wind: 2 mph from Southeast

Location: Altenstadt Airport

Current Time: May 4, 2015 at 10:14:05 PM

Latest Report: May 4, 2015 at 9:20 PM


Visibility: N/A

Pressure: 29.86 "Hg

Humidity: 83%

Dew point: 55 °F

Location of KaufbeurenLocation

Historic Weather in Kaufbeuren — Graph

°F

Kaufbeuren temperature yesterday

Maximum temperature yesterday: 61 °F (at 4:20 PM)
Minimum temperature yesterday: 48 °F (at 3:20 AM)
Average temperature yesterday: 54 °F

Past Weeks' High & Low Weather Summary

 TemperatureHumidityPressure
High68 °F (Apr 27, 3:20 PM)100% (Apr 25, 11:20 PM)30.39 "Hg (Apr 25, 11:20 PM)
Low30 °F (Apr 20, 5:20 AM)24% (Apr 21, 6:20 PM)29.50 "Hg (Apr 27, 5:20 PM)
Average49 °F74%29.97 "Hg
* Reported Apr 19 8:20 PM — May 4 8:20 PM, Kaufbeuren, Weather by CustomWeather, © 2015

Note: Actual official high and low records may vary slightly from our data, if they occured in-between our weather recording intervals... More about our weather records

Advertising

Kaufbeuren weather history for previous 24 hours

 ConditionsComfort  
Time TempWeatherWind HumidityBarometerVisibility
8:20 PM
Mon, May 4
61 °FBroken clouds.7 mph83%29.86 "HgN/A
7:20 PM63 °FBroken clouds.6 mph83%29.89 "HgN/A
6:20 PM64 °FPartly sunny.5 mph73%29.92 "HgN/A
5:20 PM64 °FBroken clouds.2 mph64%29.92 "HgN/A
4:20 PM64 °FLight rain. Broken clouds.1 mph60%29.92 "HgN/A
3:20 PM63 °FBroken clouds.6 mph68%29.92 "HgN/A
2:20 PM64 °FLight rain. Broken clouds.10 mph73%29.92 "HgN/A
1:20 PM66 °FPartly sunny.7 mph64%29.92 "HgN/A
12:20 PM64 °FPartly sunny.6 mph73%29.92 "HgN/A
11:20 AM64 °FPartly sunny.7 mph68%29.92 "HgN/A
10:20 AM61 °FPartly sunny.3 mph83%29.92 "HgN/A
9:20 AM59 °FBroken clouds.5 mph88%29.95 "HgN/A
8:20 AM55 °FPartly sunny.5 mph94%29.92 "HgN/A
7:20 AM54 °FLight rain. Partly sunny.6 mph100%29.92 "HgN/A
6:20 AM54 °FScattered showers. Partly cloudy.7 mph94%29.92 "HgN/A
5:20 AM54 °FLight rain. Passing clouds.6 mph100%29.92 "HgN/A
4:20 AM55 °FCool.12 mph94%29.92 "HgN/A
3:20 AM55 °FCool.16 mph94%29.89 "HgN/A
2:20 AM55 °FCool.17 mph94%29.89 "HgN/A
1:20 AM57 °FCool.14 mph82%29.89 "HgN/A
12:20 AM55 °FCool.2 mph88%29.86 "HgN/A
11:20 PM
Sun, May 3
57 °FCool.7 mph82%29.86 "HgN/A
10:20 PM57 °FCool.6 mph88%29.86 "HgN/A
Weather by CustomWeather, © 2015

See weather overviewHow to use our weather pages